Time,TemperatureF,DewpointF,PressureIn,WindDirection,WindDirectionDegrees,WindSpeedMPH,WindSpeedGustMPH,Humidity,HourlyPrecipIn,Conditions,Clouds,dailyrainin,SoftwareType,DateUTC
2013-03-20 00:00:00,41.0,18.0,29.85,SW,222,3.0,9.0,39,-99.99,,,-99.99,,2013-03-20 04:00:00,
2013-03-20 00:23:00,41.0,18.0,29.85,SW,222,3.0,9.0,39,-99.99,,,-99.99,,2013-03-20 04:23:00,
2013-03-20 00:32:00,41.0,18.0,29.85,SW,222,3.0,9.0,39,-99.99,,,-99.99,,2013-03-20 04:32:00,
2013-03-20 00:43:00,41.0,18.0,29.85,SW,222,3.0,9.0,39,-99.99,,,-99.99,,2013-03-20 04:43:00,
2013-03-20 00:53:00,41.0,18.0,29.85,SW,222,3.0,9.0,39,-99.99,,,-99.99,,2013-03-20 04:53:00,
2013-03-20 01:00:00,39.0,19.0,29.88,SSW,198,4.0,12.0,44,-99.99,,,-99.99,,2013-03-20 05:00:00,
2013-03-20 01:23:00,39.0,19.0,29.88,SSW,198,4.0,12.0,44,-99.99,,,-99.99,,2013-03-20 05:23:00,
2013-03-20 01:33:00,39.0,19.0,29.88,SSW,198,4.0,12.0,44,-99.99,,,-99.99,,2013-03-20 05:33:00,
2013-03-20 01:43:00,39.0,19.0,29.88,SSW,198,4.0,12.0,44,-99.99,,,-99.99,,2013-03-20 05:43:00,
2013-03-20 01:53:00,39.0,19.0,29.88,SSW,198,4.0,12.0,44,-99.99,,,-99.99,,2013-03-20 05:53:00,
2013-03-20 02:00:00,37.0,20.0,29.91,SE,137,2.0,12.0,50,-99.99,,,-99.99,,2013-03-20 06:00:00,
2013-03-20 02:32:00,37.0,20.0,29.91,SE,137,2.0,12.0,50,-99.99,,,-99.99,,2013-03-20 06:32:00,
2013-03-20 02:43:00,37.0,20.0,29.91,SE,137,2.0,12.0,50,-99.99,,,-99.99,,2013-03-20 06:43:00,
2013-03-20 02:53:00,37.0,20.0,29.91,SE,137,2.0,12.0,50,-99.99,,,-99.99,,2013-03-20 06:53:00,
2013-03-20 03:00:00,36.0,19.0,29.91,NNE,20,1.0,11.0,51,-99.99,,,-99.99,,2013-03-20 07:00:00,
2013-03-20 03:32:00,36.0,19.0,29.91,NNE,20,1.0,11.0,51,-99.99,,,-99.99,,2013-03-20 07:32:00,
2013-03-20 03:42:00,36.0,19.0,29.91,NNE,20,1.0,11.0,51,-99.99,,,-99.99,,2013-03-20 07:42:00,
2013-03-20 03:52:00,36.0,19.0,29.91,NNE,20,1.0,11.0,51,-99.99,,,-99.99,,2013-03-20 07:52:00,
2013-03-20 04:00:00,34.0,20.0,29.91,SSE,162,3.0,12.0,56,-99.99,,,-99.99,,2013-03-20 08:00:00,
2013-03-20 04:22:00,34.0,20.0,29.91,SSE,162,3.0,12.0,56,-99.99,,,-99.99,,2013-03-20 08:22:00,
2013-03-20 04:32:00,34.0,20.0,29.91,SSE,162,3.0,12.0,56,-99.99,,,-99.99,,2013-03-20 08:32:00,
2013-03-20 04:42:00,34.0,20.0,29.91,SSE,162,3.0,12.0,56,-99.99,,,-99.99,,2013-03-20 08:42:00,
2013-03-20 04:52:00,34.0,20.0,29.91,SSE,162,3.0,12.0,56,-99.99,,,-99.99,,2013-03-20 08:52:00,
2013-03-20 05:00:00,33.0,20.0,29.91,SE,133,4.0,11.0,59,-99.99,,,-99.99,,2013-03-20 09:00:00,
2013-03-20 05:33:00,33.0,20.0,29.91,SE,133,4.0,11.0,59,-99.99,,,-99.99,,2013-03-20 09:33:00,
2013-03-20 05:43:00,33.0,20.0,29.91,SE,133,4.0,11.0,59,-99.99,,,-99.99,,2013-03-20 09:43:00,
2013-03-20 05:53:00,33.0,20.0,29.91,SE,133,4.0,11.0,59,-99.99,,,-99.99,,2013-03-20 09:53:00,
2013-03-20 06:00:00,31.0,19.0,29.91,ESE,117,6.0,10.0,63,-99.99,,,-99.99,,2013-03-20 10:00:00,
2013-03-20 06:33:00,31.0,19.0,29.91,ESE,117,6.0,10.0,63,-99.99,,,-99.99,,2013-03-20 10:33:00,
2013-03-20 06:43:00,31.0,19.0,29.91,ESE,117,6.0,10.0,63,-99.99,,,-99.99,,2013-03-20 10:43:00,
2013-03-20 06:53:00,31.0,19.0,29.91,ESE,117,6.0,10.0,63,-99.99,,,-99.99,,2013-03-20 10:53:00,
2013-03-20 07:00:00,26.0,20.0,29.91,ESE,110,0.0,7.0,80,-99.99,,,-99.99,,2013-03-20 11:00:00,
2013-03-20 07:22:00,26.0,20.0,29.91,ESE,110,0.0,7.0,80,-99.99,,,-99.99,,2013-03-20 11:22:00,
2013-03-20 07:32:00,26.0,20.0,29.91,ESE,110,0.0,7.0,80,-99.99,,,-99.99,,2013-03-20 11:32:00,
2013-03-20 07:42:00,26.0,20.0,29.91,ESE,110,0.0,7.0,80,-99.99,,,-99.99,,2013-03-20 11:42:00,
2013-03-20 07:52:00,26.0,20.0,29.91,ESE,110,0.0,7.0,80,-99.99,,,-99.99,,2013-03-20 11:52:00,
2013-03-20 08:00:00,32.0,24.0,29.94,ENE,77,0.0,7.0,70,-99.99,,,-99.99,,2013-03-20 12:00:00,
2013-03-20 08:22:00,32.0,24.0,29.94,ENE,77,0.0,7.0,70,-99.99,,,-99.99,,2013-03-20 12:22:00,
2013-03-20 08:33:00,32.0,24.0,29.94,ENE,77,0.0,7.0,70,-99.99,,,-99.99,,2013-03-20 12:33:00,
2013-03-20 08:43:00,32.0,24.0,29.94,ENE,77,0.0,7.0,70,-99.99,,,-99.99,,2013-03-20 12:43:00,
2013-03-20 08:52:00,32.0,24.0,29.94,ENE,77,0.0,7.0,70,-99.99,,,-99.99,,2013-03-20 12:52:00,
2013-03-20 09:00:00,39.0,17.0,29.94,NW,305,3.0,12.0,41,-99.99,,,-99.99,,2013-03-20 13:00:00,
2013-03-20 09:22:00,39.0,17.0,29.94,NW,305,3.0,12.0,41,-99.99,,,-99.99,,2013-03-20 13:22:00,
2013-03-20 09:32:00,39.0,17.0,29.94,NW,305,3.0,12.0,41,-99.99,,,-99.99,,2013-03-20 13:32:00,
2013-03-20 09:43:00,39.0,17.0,29.94,NW,305,3.0,12.0,41,-99.99,,,-99.99,,2013-03-20 13:43:00,
2013-03-20 09:53:00,39.0,17.0,29.94,NW,305,3.0,12.0,41,-99.99,,,-99.99,,2013-03-20 13:53:00,
2013-03-20 10:00:00,41.0,14.0,29.94,SW,218,11.0,14.0,34,-99.99,,,-99.99,,2013-03-20 14:00:00,
2013-03-20 10:23:00,41.0,14.0,29.94,SW,218,11.0,14.0,34,-99.99,,,-99.99,,2013-03-20 14:23:00,
2013-03-20 10:34:00,41.0,14.0,29.94,SW,218,11.0,14.0,34,-99.99,,,-99.99,,2013-03-20 14:34:00,
2013-03-20 10:43:00,41.0,14.0,29.94,SW,218,11.0,14.0,34,-99.99,,,-99.99,,2013-03-20 14:43:00,
2013-03-20 10:53:00,41.0,14.0,29.94,SW,218,11.0,14.0,34,-99.99,,,-99.99,,2013-03-20 14:53:00,
2013-03-20 11:00:00,43.0,13.0,29.94,SE,134,7.0,29.0,29,-99.99,,,-99.99,,2013-03-20 15:00:00,
2013-03-20 11:33:00,43.0,13.0,29.94,SE,134,7.0,29.0,29,-99.99,,,-99.99,,2013-03-20 15:33:00,
2013-03-20 11:43:00,43.0,13.0,29.94,SE,134,7.0,29.0,29,-99.99,,,-99.99,,2013-03-20 15:43:00,
2013-03-20 11:53:00,43.0,13.0,29.94,SE,134,7.0,29.0,29,-99.99,,,-99.99,,2013-03-20 15:53:00,
2013-03-20 12:00:00,45.0,14.0,29.91,NNW,332,6.0,22.0,28,-99.99,,,-99.99,,2013-03-20 16:00:00,
2013-03-20 12:23:00,45.0,14.0,29.91,NNW,332,6.0,22.0,28,-99.99,,,-99.99,,2013-03-20 16:23:00,
2013-03-20 12:33:00,45.0,14.0,29.91,NNW,332,6.0,22.0,28,-99.99,,,-99.99,,2013-03-20 16:33:00,
2013-03-20 12:43:00,45.0,14.0,29.91,NNW,332,6.0,22.0,28,-99.99,,,-99.99,,2013-03-20 16:43:00,
2013-03-20 12:53:00,45.0,14.0,29.91,NNW,332,6.0,22.0,28,-99.99,,,-99.99,,2013-03-20 16:53:00,
2013-03-20 14:00:00,46.0,15.0,29.88,WNW,292,9.0,23.0,28,-99.99,,,-99.99,,2013-03-20 18:00:00,
2013-03-20 14:22:00,46.0,15.0,29.88,WNW,292,9.0,23.0,28,-99.99,,,-99.99,,2013-03-20 18:22:00,
2013-03-20 14:34:00,46.0,15.0,29.88,WNW,292,9.0,23.0,28,-99.99,,,-99.99,,2013-03-20 18:34:00,
2013-03-20 14:43:00,46.0,15.0,29.88,WNW,292,9.0,23.0,28,-99.99,,,-99.99,,2013-03-20 18:43:00,
2013-03-20 14:53:00,46.0,15.0,29.88,WNW,292,9.0,23.0,28,-99.99,,,-99.99,,2013-03-20 18:53:00,
2013-03-20 15:00:00,48.0,16.0,29.85,WSW,244,9.0,23.0,27,-99.99,,,-99.99,,2013-03-20 19:00:00,
2013-03-20 15:23:00,48.0,16.0,29.85,WSW,244,9.0,23.0,27,-99.99,,,-99.99,,2013-03-20 19:23:00,
2013-03-20 15:33:00,48.0,16.0,29.85,WSW,244,9.0,23.0,27,-99.99,,,-99.99,,2013-03-20 19:33:00,
2013-03-20 15:42:00,48.0,16.0,29.85,WSW,244,9.0,23.0,27,-99.99,,,-99.99,,2013-03-20 19:42:00,
2013-03-20 15:53:00,48.0,16.0,29.85,WSW,244,9.0,23.0,27,-99.99,,,-99.99,,2013-03-20 19:53:00,
2013-03-20 16:00:00,49.0,15.0,29.83,WSW,256,6.0,20.0,24,-99.99,,,-99.99,,2013-03-20 20:00:00,
2013-03-20 16:23:00,49.0,15.0,29.83,WSW,256,6.0,20.0,24,-99.99,,,-99.99,,2013-03-20 20:23:00,
2013-03-20 16:32:00,49.0,15.0,29.83,WSW,256,6.0,20.0,24,-99.99,,,-99.99,,2013-03-20 20:32:00,
2013-03-20 16:43:00,49.0,15.0,29.83,WSW,256,6.0,20.0,24,-99.99,,,-99.99,,2013-03-20 20:43:00,
2013-03-20 16:53:00,49.0,15.0,29.83,WSW,256,6.0,20.0,24,-99.99,,,-99.99,,2013-03-20 20:53:00,
2013-03-20 17:00:00,49.0,12.0,29.83,WSW,257,6.0,18.0,22,-99.99,,,-99.99,,2013-03-20 21:00:00,
2013-03-20 17:23:00,49.0,12.0,29.83,WSW,257,6.0,18.0,22,-99.99,,,-99.99,,2013-03-20 21:23:00,
2013-03-20 17:33:00,49.0,12.0,29.83,WSW,257,6.0,18.0,22,-99.99,,,-99.99,,2013-03-20 21:33:00,
2013-03-20 17:42:00,49.0,12.0,29.83,WSW,257,6.0,18.0,22,-99.99,,,-99.99,,2013-03-20 21:42:00,
2013-03-20 17:53:00,49.0,12.0,29.83,WSW,257,6.0,18.0,22,-99.99,,,-99.99,,2013-03-20 21:53:00,
2013-03-20 18:00:00,48.0,17.0,29.80,WSW,255,2.0,10.0,29,-99.99,,,-99.99,,2013-03-20 22:00:00,
2013-03-20 18:23:00,48.0,17.0,29.80,WSW,255,2.0,10.0,29,-99.99,,,-99.99,,2013-03-20 22:23:00,
2013-03-20 18:33:00,48.0,17.0,29.80,WSW,255,2.0,10.0,29,-99.99,,,-99.99,,2013-03-20 22:33:00,
2013-03-20 18:43:00,48.0,17.0,29.80,WSW,255,2.0,10.0,29,-99.99,,,-99.99,,2013-03-20 22:43:00,
2013-03-20 18:53:00,48.0,17.0,29.80,WSW,255,2.0,10.0,29,-99.99,,,-99.99,,2013-03-20 22:53:00,
2013-03-20 19:00:00,45.0,22.0,29.80,WSW,242,5.0,9.0,40,-99.99,,,-99.99,,2013-03-20 23:00:00,
2013-03-20 19:23:00,45.0,22.0,29.80,WSW,242,5.0,9.0,40,-99.99,,,-99.99,,2013-03-20 23:23:00,
2013-03-20 19:33:00,45.0,22.0,29.80,WSW,242,5.0,9.0,40,-99.99,,,-99.99,,2013-03-20 23:33:00,
2013-03-20 19:43:00,45.0,22.0,29.80,WSW,242,5.0,9.0,40,-99.99,,,-99.99,,2013-03-20 23:43:00,
2013-03-20 19:53:00,45.0,22.0,29.80,WSW,242,5.0,9.0,40,-99.99,,,-99.99,,2013-03-20 23:53:00,
2013-03-20 20:00:00,36.0,24.0,29.80,WSW,238,0.0,8.0,61,-99.99,,,-99.99,,2013-03-21 00:00:00,
2013-03-20 20:23:00,36.0,24.0,29.80,WSW,238,0.0,8.0,61,-99.99,,,-99.99,,2013-03-21 00:23:00,
2013-03-20 20:33:00,36.0,24.0,29.80,WSW,238,0.0,8.0,61,-99.99,,,-99.99,,2013-03-21 00:33:00,
2013-03-20 20:42:00,36.0,24.0,29.80,WSW,238,0.0,8.0,61,-99.99,,,-99.99,,2013-03-21 00:42:00,
2013-03-20 20:53:00,36.0,24.0,29.80,WSW,238,0.0,8.0,61,-99.99,,,-99.99,,2013-03-21 00:53:00,
2013-03-20 21:00:00,42.0,27.0,29.80,West,262,5.0,9.0,54,-99.99,,,-99.99,,2013-03-21 01:00:00,
2013-03-20 21:22:00,42.0,27.0,29.80,West,262,5.0,9.0,54,-99.99,,,-99.99,,2013-03-21 01:22:00,
2013-03-20 21:33:00,42.0,27.0,29.80,West,262,5.0,9.0,54,-99.99,,,-99.99,,2013-03-21 01:33:00,
2013-03-20 21:42:00,42.0,27.0,29.80,West,262,5.0,9.0,54,-99.99,,,-99.99,,2013-03-21 01:42:00,
2013-03-20 21:53:00,42.0,27.0,29.80,West,262,5.0,9.0,54,-99.99,,,-99.99,,2013-03-21 01:53:00,
2013-03-20 22:00:00,43.0,26.0,29.80,West,260,3.0,8.0,50,-99.99,,,-99.99,,2013-03-21 02:00:00,
2013-03-20 22:23:00,43.0,26.0,29.80,West,260,3.0,8.0,50,-99.99,,,-99.99,,2013-03-21 02:23:00,
2013-03-20 22:33:00,43.0,26.0,29.80,West,260,3.0,8.0,50,-99.99,,,-99.99,,2013-03-21 02:33:00,
2013-03-20 22:42:00,43.0,26.0,29.80,West,260,3.0,8.0,50,-99.99,,,-99.99,,2013-03-21 02:42:00,
2013-03-20 22:52:00,43.0,26.0,29.80,West,260,3.0,8.0,50,-99.99,,,-99.99,,2013-03-21 02:52:00,
2013-03-20 23:00:00,42.0,28.0,29.80,WSW,243,6.0,9.0,56,-99.99,,,-99.99,,2013-03-21 03:00:00,
2013-03-20 23:22:00,42.0,28.0,29.80,WSW,243,6.0,9.0,56,-99.99,,,-99.99,,2013-03-21 03:22:00,
2013-03-20 23:33:00,42.0,28.0,29.80,WSW,243,6.0,9.0,56,-99.99,,,-99.99,,2013-03-21 03:33:00,
2013-03-20 23:43:00,42.0,28.0,29.80,WSW,243,6.0,9.0,56,-99.99,,,-99.99,,2013-03-21 03:43:00,
2013-03-20 23:53:00,42.0,28.0,29.80,WSW,243,6.0,9.0,56,-99.99,,,-99.99,,2013-03-21 03:53:00,